Date,TemperatureHighF,TemperatureAvgF,TemperatureLowF,DewpointHighF,DewpointAvgF,DewpointLowF,HumidityHigh,HumidityAvg,HumidityLow,PressureMaxIn,PressureMinIn,WindSpeedMaxMPH,WindSpeedAvgMPH,GustSpeedMaxMPH,PrecipitationSumIn
2013-10-1,83,64,52,63,56,48,89,76,45,30.08,29.97,9,1,9,0.00
2013-10-2,87,69,54,65,58,50,89,71,42,30.08,30.00,10,1,12,0.00
2013-10-3,85,67,54,66,59,50,89,77,49,30.13,30.02,6,0,7,0.00
2013-10-4,87,70,58,69,61,53,89,76,48,30.10,30.00,6,0,8,0.00
2013-10-5,89,72,60,69,62,56,89,73,46,30.09,29.97,6,0,7,0.00
2013-10-6,91,73,57,68,61,53,88,69,38,30.00,29.85,10,1,12,0.00
2013-10-7,73,63,52,66,57,45,89,80,60,30.08,29.70,14,1,14,1.26
2013-10-8,68,55,42,51,46,38,89,73,46,30.30,30.08,11,1,11,0.00
2013-10-9,61,50,40,51,44,37,90,79,57,30.37,30.27,8,1,8,0.01
2013-10-10,55,53,51,51,49,47,89,86,86,30.27,30.05,4,0,6,1.37
2013-10-11,60,57,53,56,53,49,87,86,85,30.05,30.00,5,0,5,1.50
2013-10-12,64,61,58,61,57,53,89,87,85,30.19,30.02,8,1,11,0.22
2013-10-13,59,58,57,55,53,52,87,86,85,30.33,30.18,8,1,8,0.23
2013-10-14,66,58,54,59,54,51,90,85,75,30.35,30.23,5,0,5,0.00
2013-10-15,70,58,50,59,52,47,90,80,54,30.24,30.08,7,0,8,0.01
2013-10-16,71,58,45,62,53,41,90,84,68,30.08,29.90,6,0,6,0.00
2013-10-17,72,62,56,65,57,47,89,84,69,29.90,29.68,16,1,24,0.10
2013-10-18,66,56,41,48,44,38,90,66,42,30.02,29.86,13,2,18,0.01
2013-10-19,62,48,35,54,43,32,90,81,64,30.00,29.77,12,1,15,0.02
2013-10-20,63,49,36,41,38,33,90,69,38,30.10,29.93,13,2,14,0.01
2013-10-21,68,49,31,47,39,28,90,72,39,30.15,29.92,11,1,11,0.00
2013-10-22,60,48,38,50,40,32,90,75,39,29.93,29.84,13,1,13,0.00
2013-10-23,49,41,31,41,35,28,90,80,64,29.93,29.72,13,1,13,0.00
2013-10-24,48,40,34,38,33,30,90,77,51,30.16,29.93,13,2,18,0.00
2013-10-25,51,38,29,36,30,26,90,75,49,30.34,30.15,14,2,15,0.00
2013-10-26,56,41,25,36,29,23,91,66,37,30.33,29.94,15,1,18,0.01
2013-10-27,59,48,33,39,34,30,89,61,37,30.15,29.98,13,2,15,0.00
2013-10-28,61,42,26,42,34,24,90,75,44,30.30,30.15,7,1,9,0.00
2013-10-29,61,45,30,43,37,27,90,76,48,30.42,30.30,6,0,7,0.00
2013-10-30,67,53,43,55,47,40,90,81,62,30.32,30.13,6,0,6,0.02
2013-10-31,69,60,53,61,55,49,90,84,72,30.16,29.69,5,0,9,0.05